This demonstration page uses our WeatherBlox Daily Observations layout. Learn more.

Left ArrowRight Arrow

34.74481, -87.66753

Hourly Observations for May 26, 2019

Temp ( °F °C ) Dew Point ( °F °C ) Humidity (%) Winds ( mph kmh ) Pressure ( in mb ) Visibility ( mi km ) Precip ( " mm )
12:53 am 00:53 Clear 72 22.2 68 20 87 87 Calm 30.10 1019 10 16 0.00 0.00
1:53 am 01:53 Clear 73 22.8 68 20 84 84 Calm 30.09 1019 10 16 0.00 0.00
2:53 am 02:53 Clear 71 21.7 68 20 90 90 Calm 30.09 1019 10 16 0.00 0.00
3:53 am 03:53 Clear 70 21.1 67 19.4 90 90 Calm 30.10 1019 10 16 0.00 0.00
4:53 am 04:53 Clear 70 21.1 66 18.9 87 87 Calm 30.11 1020 10 16 0.00 0.00
5:53 am 05:53 Sunny 69 20.6 66 18.9 90 90 Calm 30.14 1021 10 16 0.00 0.00
6:53 am 06:53 Sunny 73 22.8 68 20 84 84 Calm 30.16 1021 10 16 0.00 0.00
7:53 am 07:53 Sunny 79 26.1 67 19.4 67 67 SW 5 7 30.16 1021 10 16 0.00 0.00
8:53 am 08:53 Sunny 87 30.6 65 18.3 48 48 W 8 13 30.16 1021 10 16 0.00 0.00
9:53 am 09:53 Sunny 91 32.8 65 18.3 42 42 W 12 19 30.15 1021 10 16 0.00 0.00
10:53 am 10:53 Sunny 91 32.8 63 17.2 39 39 W 13 20 30.14 1021 10 16 0.00 0.00
11:53 am 11:53 Sunny 94 34.4 64 17.8 37 37 W 10 17 30.14 1021 10 16 0.00 0.00
12:17 pm 12:17 Sunny 94 34.4 63 17.2 36 36 WSW 12 19 30.12 1020 10 16 0.00 0.00
12:53 pm 12:53 Sunny 95 35 61 16.1 32 32 W 13 20 30.12 1020 10 16 0.00 0.00
1:53 pm 13:53 Sunny 96 35.6 62 16.7 32 32 SW 16 26 30.11 1020 10 16 0.00 0.00
2:53 pm 14:53 Partly Cloudy 98 36.7 62 16.7 31 31 W 14 22 30.11 1020 10 16 0.00 0.00
3:53 pm 15:53 Mostly Sunny 97 36.1 62 16.7 32 32 W 13 20 30.09 1019 10 16 0.00 0.00
4:53 pm 16:53 Partly Cloudy 94 34.4 63 17.2 36 36 W 13 20 30.06 1018 10 16 0.00 0.00
5:53 pm 17:53 Mostly Sunny 94 34.4 62 16.7 35 35 W 13 20 30.06 1018 10 16 0.00 0.00
6:53 pm 18:53 Sunny 91 32.8 62 16.7 38 38 W 8 13 30.05 1018 10 16 0.00 0.00
7:53 pm 19:53 Sunny 86 30 65 18.3 49 49 SW 5 7 30.05 1018 10 16 0.00 0.00
8:53 pm 20:53 Clear 80 26.7 68 20 67 67 Calm 30.05 1018 10 16 0.00 0.00
9:53 pm 21:53 Clear 76 24.4 68 20 77 77 Calm 30.05 1018 10 16 0.00 0.00
10:53 pm 22:53 Clear 75 23.9 69 20.6 82 82 Calm 30.06 1018 10 16 0.00 0.00
11:53 pm 23:53 Clear 74 23.3 69 20.6 85 85 Calm 30.05 1018 10 16 0.00 0.00

Powered by AerisWeather